www.pogodaiklimat.ru
ПОГОДА в Округ Осеано
Время
и дата
19:35 07.12
19:55 07.12
20:15 07.12
20:35 07.12
20:55 07.12
21:15 07.12
21:35 07.12
21:55 07.12
22:15 07.12
22:35 07.12
22:55 07.12
23:15 07.12
23:35 07.12
23:55 07.12
00:15 08.12
00:35 08.12
00:55 08.12
01:15 08.12
01:35 08.12
01:55 08.12
02:15 08.12
02:35 08.12
02:55 08.12
03:15 08.12
03:35 08.12
03:55 08.12
04:15 08.12
04:35 08.12
04:55 08.12
05:15 08.12
05:35 08.12
05:55 08.12
06:15 08.12
06:35 08.12
06:55 08.12
07:15 08.12
07:35 08.12
07:55 08.12
08:15 08.12
08:35 08.12
08:55 08.12
09:15 08.12
09:35 08.12
09:55 08.12
10:15 08.12
10:35 08.12
10:55 08.12
11:15 08.12
Ветер
(напр.,м/с)
Видим. Явления Облачность Т
(С)
Тd
(С)
f
(%)
Тe
(С)
Тes
(С)
Комфортность P
(гПа)
Po
(гПа)
Тmin
(С)
Tmax
(С)
R
(мм)
R24
(мм)
S
(см)
В 2 11 км ясно +7.0 +7.0 100 +5 +5 1024.2
В 2 11 км ясно +7.0 +7.0 100 +5 +5 1024.2
В 2 13 км ясно +7.0 +7.0 100 +5 +5 1024.6
В 3 11 км ясно +7.0 +7.0 100 +4 +4 1024.6
В 2 11 км ясно +8.0 +8.0 100 +6 +6 1024.6
В 2 13 км ясно +7.0 +7.0 100 +5 +5 1024.6
В 2 13 км ясно +8.0 +8.0 100 +6 +6 1024.6
В 2 13 км ясно +7.0 +7.0 100 +5 +5 1024.9
штиль 0 13 км ясно 1024.9
В 2 13 км ясно +7.0 +7.0 100 +5 +5 1025.3
штиль 0 13 км ясно +6.0 +6.0 100 +5 +5 1025.6
В 3 11 км ясно +5.0 +5.0 100 +1 +1 1025.6
В 2 11 км ясно +5.0 +5.0 100 +2 +2 1025.9
штиль 0 11 км ясно +4.0 +4.0 100 +3 +3 1025.9
нст 2 11 км 2/2 1410 м +5.0 +5.0 100 +2 +2 1025.9
В 2 11 км ясно +5.0 +5.0 100 +2 +2 1025.9
В 2 13 км ясно +5.0 +5.0 100 +2 +2 1025.6
В 2 13 км ясно +5.0 +5.0 100 +2 +2 1025.6
В 3 11 км ясно +5.0 +5.0 100 +1 +1 1025.6
В 2 11 км ясно +5.0 +5.0 100 +2 +2 1025.6
В 2 11 км ясно +5.0 +5.0 100 +2 +2 1025.6
штиль 0 13 км ясно +5.0 +5.0 100 +4 +4 1025.9
В 2 11 км ясно +5.0 +5.0 100 +2 +2 1025.6
В 2 13 км ясно +4.0 +4.0 100 +1 +1 1025.6
В 2 11 км ясно +4.0 +4.0 100 +1 +1 1025.6
В 3 11 км ясно +4.0 +4.0 100 0 0 1025.3
В 2 13 км ясно +4.0 +4.0 100 +1 +1 1025.6
нст 2 11 км ясно +5.0 +5.0 100 +2 +2 1025.6
нст 2 13 км ясно +5.0 +5.0 100 +2 +2 1025.3
В 3 13 км ясно +5.0 +5.0 100 +1 +1 1025.3
В 2 11 км ясно +5.0 +5.0 100 +2 +2 1025.3
В 2 11 км ясно +4.0 +4.0 100 +1 +1 1025.6
В 2 13 км ясно +3.0 +3.0 100 0 0 1025.6
ЮВ 2 10 км дымка ясно +2.0 +2.0 100 -2 -2 1025.9
ЮВ 2 10 км дымка ясно +2.0 +2.0 100 -2 -2 1026.3
ЮВ 3 8 км дымка ясно +2.0 +2.0 100 -3 -3 1026.6
ЮВ 2 10 км дымка ясно +3.0 +3.0 100 0 0 1026.6
В 2 10 км мгла ясно 1026.6
штиль 0 11 км ясно +6.0 +6.0 100 +5 +5 1026.6
ЮВ 2 11 км ясно +7.0 +6.0 93 +5 +5 1026.9
В 2 11 км ясно +8.0 +7.0 93 +6 +6 1026.9
штиль 0 11 км ясно +9.0 +7.0 87 +8 +11 1026.9
штиль 0 11 км ясно +10.0 +7.0 82 +9 +12 1026.9
штиль 0 11 км ясно +11.0 +7.0 76 +10 +13 1026.9
штиль 0 11 км ясно +12.0 +8.0 76 +12 +17 1026.9
11 км ясно +13.0 +8.0 72 +13 +18 1026.9
штиль 0 11 км ясно +13.0 +7.0 67 +13 +18 1026.6
З 2 10 км мгла ясно +14.0 +8.0 67 +14 +19 1026.6
Местоположение метеостанции Oceano County Airport: широта 35.1015 долгота -120.6224 высота над уровнем моря 3 м.
В архиве по умолчанию представлена погода в Округ Осеано за последние 1-2 суток. Обновление информации о фактической погоде в базе происходит ежечасно! Архивные данные за месяц целиком и за предыдущие месяцы Вы можете получить, выбрав интересующий диапазон дат из раскрывающегося списка и нажав кнопку "Ввод!".
Внимание! Архив погоды МЕТАР в базе сайта по станциям, не включенным в климатический монитор, хранится не более 60 дней. Нет смысла пытаться выбрать более раннюю дату.
*Определитесь, кто Вы:
Внимание! Время в таблицах - местное (без учета летнего времени). Для получения всемирного времени необходимо вычесть поправку, которая равна -8 ч.
Смотрите также архив погоды в соседних городах и на ближайших метеорологических станциях:
Партнеры нашего сайта:      
Пояснения к столбцам:
  • Ветер - указаны скорость ветра в м/с - средняя за 10 мин, порывы в срок и между сроками (в фигурных скобках) и направление, откуда дует ветер: С - северный,
  • СВ - северо-восточный, В - восточный, ЮВ - юго-восточный, Ю - южный, ЮЗ - юго-западный, З - западный, СЗ - северо-западный.
  • Видимость - горизонтальная дальность видимости в метрах или километрах. При видимости от 1 до 10 км при отсутствии осадков обычно наблюдается дымка, при ухудшении видимости до 1 км и менее - туман. В сухую погоду видимость может ухудшаться дымом, пылью или мглою.
  • Явления - указаны атмосферные явления, наблюдавшиеся в срок или в последний час перед сроком; фигурными скобками обозначены явления, наблюдавшиеся между сроками (за 1-3 часа до срока); квадратными скобками обозначены град или гололедные отложения с указанием их диаметра в мм.
  • Облачность - указаны через наклонную черту общая и нижняя облачность в баллах и высота нижней границы облаков в метрах; квадратными скобками обозначены формы облаков: Ci - перистые, Cs - перисто-слоистые, Cc - перисто-кучевые, Ac - высококучевые, As - высокослоистые, Sc - слоисто-кучевые, Ns - слоисто-дождевые, Cu - кучевые, Cb - кучево-дождевые. Подробнее классификацию облаков см. в Атласе облаков (PDF).
  • T - Температура воздуха - температура, измеренная на высоте 2 м над землей.
  • Td - Температура точки росы - температура, при понижении до которой содержащийся в воздухе водяной пар достигнет насыщения.
  • f - Относительная влажность воздуха - влажноcть воздуха, измеренная на высоте 2 м над землей.
  • Te - Эффективная температура - температура, которую ощущает одетый по сезону человек в тени. Характеристика душности погоды. При расчете учитывается влияние влажности воздуха и скорости ветра на теплоощущения человека.
  • Tes - Эффективная температура на солнце - температура, которую ощущает человек, с поправкой на солнечный нагрев. Характеристика знойности погоды. Зависит от высоты солнца над горизонтом, облачности и скорости ветра. Ночью, в пасмурную погоду, а также при ветре 12 м/с и более поправка равна нулю.
  • P - Атмосферное давление - приведенное к уровню моря атмосферное давление.
  • Po - Атмосферное давление - измеренное на уровне метеостанции атмосферное давление.
  • Tmin - Минимальная температура - минимум температуры воздуха на высоте 2 м над землей.
  • Tmax - Максимальная температура - максимум температуры воздуха на высоте 2 м над землей.
  • R - Количество осадков - Количество выпавших осадков за период времени, мм. При наведении курсора мыши на число - период времени, за который выпало указанное количество осадков.
  • R24 - Количество осадков - Количество выпавших осадков за 24 часа, мм.
  • S - Снежный покров - Высота снежного покрова, см. При наведении курсора мыши на число - состояние снежного покрова и степень покрытия местности в баллах.